Humidity-temperature Sensor

Selected Measurement Type: Relative Humidity

 
Relative Humidity [%]     6 entries per hour
Showing data from 6/25/2015 (07:00:00 Z) to 6/22/2015 (00:01:00 Z)
Previous Next [ Day | 3-Days | 7-Days ]
First Last
Prev [ Day | 3-Days | 7-Days ] Next
First Last

Start Time:     :
End Time:     :     
Time (in GMT) :00 :50 :40 :30 :20 :10
Previous Next [ Day | 3-Days | 7-Days ]
First Last
Prev [ Day | 3-Days | 7-Days ] Next
First Last


123 => good data
MM => data is determined as missing
-- => data not received/configured
Back to Top Back to Top
6/25/2015 07:00 to 6:10 84.93 85.45 86.00 85.24 85.05 84.91
6/25/2015 06:00 to 5:10 85.54 85.47 85.62 85.85 85.60 85.31
6/25/2015 05:00 to 4:10 85.93 85.70 85.72 85.18 85.49 84.91
6/25/2015 04:00 to 3:10 86.08 85.31 85.26 85.41 85.01 86.16
6/25/2015 03:00 to 2:10 84.87 84.49 84.59 85.08 86.18 86.39
6/25/2015 02:00 to 1:10 86.58 85.64 85.97 86.39 85.79 85.83
6/25/2015 01:00 to 0:10 85.31 85.08 85.22 84.66 84.70 84.24
6/25/2015 00:00 to 23:10 84.03 83.80 84.26 84.80 85.35 85.08
6/24/2015 23:00 to 22:10 84.68 84.95 84.97 85.20 85.03 85.37
6/24/2015 22:00 to 21:10 84.99 84.20 85.64 87.10 87.21 86.54
6/24/2015 21:00 to 20:10 85.62 85.77 84.51 84.72 85.41 84.80
6/24/2015 20:00 to 19:10 83.95 84.49 84.26 84.07 83.65 84.03
6/24/2015 19:00 to 18:10 83.80 83.30 83.51 83.61 83.53 83.97
6/24/2015 18:00 to 17:10 83.51 83.26 85.60 87.02 86.69 87.00
6/24/2015 17:00 to 16:10 86.62 86.20 85.62 85.39 84.68 84.72
6/24/2015 16:00 to 15:10 85.16 84.62 84.47 84.26 84.39 84.68
6/24/2015 15:00 to 14:10 84.05 83.15 83.38 83.59 83.90 85.10
6/24/2015 14:00 to 13:10 84.55 84.97 84.89 84.20 85.24 84.47
6/24/2015 13:00 to 12:10 84.39 84.36 84.13 84.85 85.95 83.47
6/24/2015 12:00 to 11:10 83.24 83.90 86.41 87.04 86.85 85.60
6/24/2015 11:00 to 10:10 84.97 84.39 84.47 84.30 84.13 84.16
6/24/2015 10:00 to 9:10 83.55 84.36 85.10 84.11 83.53 83.51
6/24/2015 09:00 to 8:10 84.39 84.53 84.43 84.68 84.20 84.07
6/24/2015 08:00 to 7:10 84.49 84.87 83.99 83.44 83.99 83.44
6/24/2015 07:00 to 6:10 84.07 84.62 84.82 84.28 84.01 83.95
6/24/2015 06:00 to 5:10 83.53 83.15 83.40 83.70 83.78 84.11
6/24/2015 05:00 to 4:10 83.34 84.03 82.82 83.63 84.43 84.05
6/24/2015 04:00 to 3:10 84.93 84.13 83.38 83.78 84.24 83.82
6/24/2015 03:00 to 2:10 83.24 83.65 83.74 82.90 83.47 83.17
6/24/2015 02:00 to 1:10 84.22 83.42 84.01 83.17 83.36 82.94
6/24/2015 01:00 to 0:10 83.15 82.86 83.51 84.80 85.37 84.80
6/24/2015 00:00 to 23:10 84.05 83.63 83.55 83.19 83.34 84.55
6/23/2015 23:00 to 22:10 84.11 82.82 82.82 82.61 82.25 83.28
6/23/2015 22:00 to 21:10 81.60 81.98 82.75 84.01 82.88 83.05
6/23/2015 21:00 to 20:10 83.13 81.88 83.03 82.84 82.38 82.36
6/23/2015 20:00 to 19:10 81.94 81.77 81.23 82.21 82.65 83.61
6/23/2015 19:00 to 18:10 82.11 82.21 81.81 81.88 82.36 81.54
6/23/2015 18:00 to 17:10 82.38 81.65 81.31 82.04 82.46 81.40
6/23/2015 17:00 to 16:10 82.27 81.71 82.04 82.98 83.86 82.44
6/23/2015 16:00 to 15:10 82.34 82.38 83.44 83.15 82.06 81.56
6/23/2015 15:00 to 14:10 81.60 82.19 82.48 81.48 81.81 81.65
6/23/2015 14:00 to 13:10 81.65 81.46 81.67 81.75 82.73 83.17
6/23/2015 13:00 to 12:10 84.26 83.78 83.97 83.61 83.55 83.42
6/23/2015 12:00 to 11:10 85.49 84.09 85.45 84.53 84.30 84.24
6/23/2015 11:00 to 10:10 83.11 83.11 84.51 83.84 84.45 83.84
6/23/2015 10:00 to 9:10 83.53 83.59 84.01 84.01 83.47 83.40
6/23/2015 09:00 to 8:10 83.42 84.43 84.47 84.30 83.97 83.36
6/23/2015 08:00 to 7:10 82.94 84.24 85.18 85.41 84.24 84.53
6/23/2015 07:00 to 6:10 84.47 84.78 84.87 84.72 86.02 87.73
6/23/2015 06:00 to 5:10 84.95 84.78 83.19 83.55 84.18 84.03
6/23/2015 05:00 to 4:10 83.59 84.74 85.35 84.07 84.13 83.53
6/23/2015 04:00 to 3:10 83.93 84.66 85.08 84.49 84.05 84.62
6/23/2015 03:00 to 2:10 85.12 85.79 86.23 85.43 85.33 85.95
6/23/2015 02:00 to 1:10 86.04 86.18 85.79 85.28 85.56 85.60
6/23/2015 01:00 to 0:10 85.45 85.68 85.43 85.03 84.72 84.59
6/23/2015 00:00 to 23:10 84.85 84.47 83.70 85.81 85.49 85.93
6/22/2015 23:00 to 22:10 86.35 86.33 85.62 84.78 85.14 85.12
6/22/2015 22:00 to 21:10 84.26 83.61 85.28 85.89 86.46 85.64
6/22/2015 21:00 to 20:10 84.95 84.20 83.53 83.70 85.05 85.77
6/22/2015 20:00 to 19:10 85.56 85.12 84.99 85.28 85.26 86.23
6/22/2015 19:00 to 18:10 86.43 85.89 86.46 86.98 86.18 85.60
6/22/2015 18:00 to 17:10 85.43 87.08 86.35 86.10 86.35 85.97
6/22/2015 17:00 to 16:10 87.17 86.79 86.87 87.48 86.81 86.66
6/22/2015 16:00 to 15:10 86.27 85.45 86.16 86.54 85.97 85.62
6/22/2015 15:00 to 14:10 86.29 85.54 85.93 86.12 86.14 86.39
6/22/2015 14:00 to 13:10 86.48 86.87 87.27 88.00 86.92 87.48
6/22/2015 13:00 to 12:10 87.52 88.07 87.90 87.46 87.35 87.61
6/22/2015 12:00 to 11:10 87.44 87.86 87.65 88.48 88.42 88.46
6/22/2015 11:00 to 10:10 88.59 88.27 88.96 88.92 89.15 88.63
6/22/2015 10:00 to 9:10 88.30 88.19 88.59 88.67 88.78 88.84
6/22/2015 09:00 to 8:10 88.90 88.94 88.94 88.90 89.19 89.05
6/22/2015 08:00 to 7:10 89.01 88.94 89.07 89.13 89.11 88.94
6/22/2015 07:00 to 6:10 88.40 88.80 88.27 88.34 88.88 88.80
6/22/2015 06:00 to 5:10 88.69 89.30 89.01 88.48 88.65 88.59
6/22/2015 05:00 to 4:10 88.90 88.92 88.78 89.07 88.76 89.09
6/22/2015 04:00 to 3:10 88.92 88.71 88.44 88.73 88.96 88.92
6/22/2015 03:00 to 2:10 88.88 88.38 88.38 88.46 88.36 88.23
6/22/2015 02:00 to 1:10 88.15 87.92 87.77 87.58 87.56 87.27
6/22/2015 01:00 to 0:10 87.04 87.15 87.00 87.02 87.35 87.08